Flag for Norway Weather past 2 weeks in Røyken, Norway

Now
54 °F

Partly sunny.


Feels Like: 45 °F
Forecast: 49 / 57 °F
Wind: 46 mph from Northeast

Location: Oslo / Fornebu

Current Time: Sep 2, 2015 at 9:23:29 PM

Latest Report: Sep 2, 2015 at 8:50 PM


Visibility: N/A

Pressure: 29.77 "Hg

Humidity: 88%

Dew point: 50 °F

Location of RøykenLocation

Historic Weather in Røyken — Graph

°F

Røyken temperature yesterday

Maximum temperature yesterday: 57 °F (at 2:20 AM)
Minimum temperature yesterday: 54 °F (at 7:50 AM)
Average temperature yesterday: 54 °F

Past Weeks' High & Low Weather Summary

 TemperatureHumidityPressure
High70 °F (Aug 24, 5:20 AM)100% (Aug 21, 4:20 PM)30.15 "Hg (Aug 21, 4:20 PM)
Low54 °F (Sep 1, 7:50 AM)46% (Aug 18, 7:20 PM)29.33 "Hg (Aug 26, 11:50 PM)
Average59 °F84%29.86 "Hg
* Reported Aug 18 7:20 PM — Sep 2 7:50 PM, Røyken, Weather by CustomWeather, © 2015

Note: Actual official high and low records may vary slightly from our data, if they occured in-between our weather recording intervals... More about our weather records

Advertising

Røyken weather history for previous 24 hours

 ConditionsComfort  
Time TempWeatherWind HumidityBarometerVisibility
7:50 PM
Wed, Sep 2
54 °FPartly sunny.47 mph88%29.77 "HgN/A
7:20 PM54 °FPartly sunny.46 mph88%29.77 "HgN/A
6:50 PM54 °FPartly sunny.46 mph88%29.77 "HgN/A
6:20 PM54 °FPartly sunny.47 mph88%29.74 "HgN/A
5:50 PM54 °FPartly sunny.45 mph88%29.77 "HgN/A
5:20 PM54 °FPartly sunny.46 mph88%29.77 "HgN/A
4:50 PM54 °FPartly sunny.44 mph88%29.77 "HgN/A
4:20 PM54 °FPartly sunny.45 mph88%29.77 "HgN/A
3:50 PM54 °FPartly sunny.46 mph88%29.77 "HgN/A
3:20 PM54 °FPartly sunny.46 mph88%29.77 "HgN/A
2:50 PM54 °FOvercast.47 mph82%29.77 "HgN/A
2:20 PM54 °FOvercast.47 mph82%29.80 "HgN/A
1:50 PM54 °FPartly sunny.46 mph88%29.80 "HgN/A
1:20 PM54 °FPartly sunny.46 mph82%29.80 "HgN/A
12:50 PM54 °FPartly sunny.46 mph82%29.80 "HgN/A
12:20 PM54 °FPartly sunny.44 mph82%29.80 "HgN/A
11:50 AM54 °FPartly sunny.46 mph77%29.80 "HgN/A
11:20 AM54 °FPartly sunny.45 mph77%29.83 "HgN/A
10:50 AM54 °FOvercast.43 mph77%29.83 "HgN/A
10:20 AM54 °FOvercast.43 mph72%29.83 "HgN/A
9:50 AM54 °FOvercast.43 mph72%29.83 "HgN/A
9:20 AM54 °FOvercast.44 mph67%29.83 "HgN/A
8:50 AM54 °FPartly sunny.45 mph67%29.83 "HgN/A
8:20 AM54 °FPartly sunny.45 mph67%29.83 "HgN/A
7:50 AM54 °FPartly sunny.43 mph67%29.83 "HgN/A
7:20 AM54 °FPartly sunny.41 mph67%29.86 "HgN/A
6:50 AM54 °FPassing clouds.44 mph67%29.86 "HgN/A
6:20 AM54 °FPassing clouds.45 mph72%29.86 "HgN/A
5:50 AM54 °FPassing clouds.45 mph72%29.86 "HgN/A
5:20 AM54 °FPassing clouds.44 mph72%29.86 "HgN/A
4:50 AM54 °FPassing clouds.44 mph77%29.86 "HgN/A
4:20 AM54 °FPassing clouds.45 mph77%29.86 "HgN/A
3:50 AM54 °FPassing clouds.45 mph77%29.89 "HgN/A
3:20 AM54 °FPassing clouds.44 mph82%29.89 "HgN/A
2:50 AM54 °FPassing clouds.44 mph77%29.89 "HgN/A
2:20 AM54 °FPassing clouds.39 mph82%29.89 "HgN/A
1:50 AM54 °FPassing clouds.38 mph82%29.92 "HgN/A
1:20 AM54 °FPassing clouds.39 mph77%29.92 "HgN/A
12:50 AM54 °FPassing clouds.39 mph77%29.92 "HgN/A
11:50 PM
Tue, Sep 1
54 °FOvercast.37 mph77%29.95 "HgN/A
11:20 PM54 °FPassing clouds.37 mph77%29.95 "HgN/A
10:50 PM54 °FOvercast.36 mph82%29.95 "HgN/A
10:20 PM54 °FPassing clouds.37 mph77%29.95 "HgN/A
9:50 PM54 °FOvercast.35 mph77%29.95 "HgN/A
9:20 PM54 °FPartly sunny.33 mph77%29.98 "HgN/A
Weather by CustomWeather, © 2015

See weather overviewHow to use our weather pages